CW5988 Weather Reports


time (UTC)temp
C
wind
direction
speed
KPH
gust
KPH
rain 1hr
cm
rain 24hr
cm
rain mn
cm
humidity
%
barometer
mb
20260506153436 15 286 4.8 8.0 0.00 0.00 0.00 77 1020.7
20260506152941 15 261 4.8 8.0 0.00 0.00 0.00 77 1020.6
20260506152422 15 295 3.2 9.7 0.00 0.00 0.00 77 1020.7
20260506151930 15 323 4.8 11.3 0.00 0.00 0.00 77 1020.7
20260506151437 15 328 6.4 11.3 0.00 0.00 0.00 78 1020.6
20260506150925 15 313 3.2 6.4 0.00 0.00 0.00 79 1020.6
20260506150458 14 177 3.2 8.0 0.00 0.00 0.00 79 1020.6
20260506145942 14 222 1.6 11.3 0.00 0.00 0.00 79 1020.6
20260506145424 14 271 6.4 12.9 0.00 0.00 0.00 79 1020.6
20260506144930 14 302 6.4 12.9 0.00 0.00 0.00 80 1020.5
20260506144435 13 313 3.2 11.3 0.00 0.00 0.00 80 1020.4
20260506143919 13 276 6.4 11.3 0.00 0.00 0.00 80 1020.5
20260506143425 13 261 6.4 11.3 0.00 0.00 0.00 80 1020.4
20260506142932 13 313 4.8 12.9 0.00 0.00 0.00 80 1020.3
20260506142419 13 295 6.4 12.9 0.00 0.00 0.00 80 1020.3
20260506141934 13 34 3.2 8.0 0.00 0.00 0.00 80 1020.3
20260506141420 13 309 4.8 6.4 0.00 0.00 0.00 80 1020.2
20260506140945 13 282 3.2 6.4 0.00 0.00 0.00 80 1020.2
20260506140429 13 235 4.8 9.7 0.00 0.00 0.00 80 1020.2
20260506135935 13 259 4.8 9.7 0.00 0.00 0.00 80 1020.1
20260506135422 13 289 4.8 8.0 0.00 0.00 0.00 81 1020.0
20260506134946 13 222 3.2 6.4 0.00 0.00 0.00 81 1020.0
20260506134433 13 185 1.6 6.4 0.00 0.00 0.00 81 1020.0
20260506133919 13 313 3.2 9.7 0.00 0.00 0.00 81 1019.9
20260506133426 13 295 4.8 9.7 0.00 0.00 0.00 81 1020.0
20260506132934 13 285 6.4 11.3 0.00 0.00 0.00 81 1019.9
20260506132420 13 247 4.8 11.3 0.00 0.00 0.00 81 1019.9
20260506131927 13 289 4.8 9.7 0.00 0.00 0.00 81 1019.9
20260506131435 13 290 4.8 9.7 0.00 0.00 0.00 81 1019.8
20260506130920 13 299 4.8 11.3 0.00 0.00 0.00 81 1019.7
20260506130422 13 258 3.2 11.3 0.00 0.00 0.00 82 1019.7
20260506125948 13 249 3.2 11.3 0.00 0.00 0.00 82 1019.8
20260506125434 13 268 6.4 11.3 0.00 0.00 0.00 82 1019.7
20260506124924 13 251 4.8 9.7 0.00 0.00 0.00 82 1019.7
20260506124430 13 292 3.2 8.0 0.00 0.00 0.00 81 1019.6
20260506123918 13 282 4.8 9.7 0.00 0.00 0.00 81 1019.5
20260506123421 13 256 3.2 12.9 0.00 0.00 0.00 81 1019.5
20260506122948 13 276 4.8 8.0 0.00 0.00 0.00 81 1019.5
20260506122436 13 301 3.2 6.4 0.00 0.00 0.00 81 1019.5
20260506121923 13 334 3.2 11.3 0.00 0.00 0.00 81 1019.4
20260506121459 13 160 3.2 11.3 0.00 0.00 0.00 81 1019.5
20260506120925 13 302 3.2 12.9 0.00 0.00 0.00 80 1019.5
20260506120433 13 288 8.0 12.9 0.00 0.00 0.00 80 1019.5
20260506115936 13 297 4.8 8.0 0.00 0.00 0.00 80 1019.4
20260506115422 13 330 3.2 6.4 0.00 0.00 0.00 80 1019.4
20260506114957 13 320 3.2 11.3 0.00 0.00 0.00 80 1019.4
20260506114445 13 261 3.2 11.3 0.00 0.00 0.00 80 1019.5
20260506113926 13 302 4.8 11.3 0.00 0.00 0.00 80 1019.4
20260506113435 13 190 4.8 11.3 0.00 0.00 0.00 80 1019.3
20260506112922 13 230 4.8 11.3 0.00 0.00 0.00 80 1019.3
20260506112425 13 313 6.4 11.3 0.00 0.00 0.00 81 1019.2
20260506111932 13 251 6.4 11.3 0.00 0.00 0.00 81 1019.3
20260506111419 13 293 8.0 12.9 0.00 0.00 0.00 81 1019.2
20260506110925 13 280 8.0 14.5 0.00 0.00 0.00 81 1019.2
20260506110429 13 275 8.0 14.5 0.00 0.00 0.00 82 1019.1
20260506105936 13 277 9.7 14.5 0.00 0.00 0.00 83 1019.1
20260506105424 13 303 8.0 14.5 0.00 0.00 0.00 83 1019.1
20260506104932 13 273 8.0 14.5 0.00 0.00 0.00 83 1019.1
20260506104436 13 294 8.0 14.5 0.00 0.00 0.00 83 1019.1
20260506103951 13 277 6.4 16.1 0.00 0.00 0.00 83 1019.0
20260506103441 13 261 8.0 16.1 0.00 0.00 0.00 83 1019.0
20260506102945 13 295 4.8 17.7 0.00 0.00 0.00 83 1019.0
20260506102433 13 276 9.7 17.7 0.00 0.00 0.00 83 1019.0
20260506101921 13 308 8.0 14.5 0.00 0.00 0.00 83 1019.0
20260506101445 13 270 9.7 14.5 0.00 0.00 0.00 83 1018.8
20260506100932 13 288 3.2 14.5 0.00 0.00 0.00 83 1018.9
20260506100419 13 287 6.4 12.9 0.00 0.00 0.00 83 1018.9
20260506095924 13 314 6.4 14.5 0.00 0.03 0.00 82 1018.9
20260506095435 13 299 8.0 14.5 0.00 0.03 0.00 82 1018.9
20260506094922 13 297 6.4 12.9 0.00 0.03 0.00 82 1019.0
20260506094430 13 280 8.0 12.9 0.00 0.03 0.00 82 1019.0
20260506093928 13 287 9.7 12.9 0.00 0.03 0.00 82 1019.0
20260506093437 13 280 3.2 11.3 0.00 0.03 0.00 81 1019.0
20260506092941 13 280 6.4 11.3 0.00 0.03 0.00 81 1019.0
20260506092428 13 317 3.2 16.1 0.00 0.03 0.00 81 1018.9
20260506091935 13 282 4.8 16.1 0.00 0.03 0.00 81 1018.9
20260506091422 13 315 4.8 14.5 0.00 0.03 0.00 81 1018.8
20260506090929 13 273 6.4 12.9 0.00 0.03 0.00 81 1018.7
20260506090501 13 203 6.4 12.9 0.00 0.03 0.00 81 1018.7
20260506085956 13 256 6.4 11.3 0.00 0.08 0.00 81 1018.8
20260506085451 13 285 9.7 11.3 0.00 0.08 0.00 81 1018.9
20260506084939 13 282 3.2 12.9 0.00 0.08 0.00 81 1018.8
20260506084455 13 301 4.8 12.9 0.00 0.08 0.00 81 1018.9
20260506083923 13 300 6.4 12.9 0.00 0.08 0.00 81 1018.9
20260506083443 13 318 6.4 9.7 0.00 0.08 0.00 81 1018.9
20260506082928 13 299 3.2 16.1 0.00 0.08 0.00 81 1019.0
20260506082434 13 313 6.4 16.1 0.00 0.08 0.00 80 1019.0
20260506081920 13 273 6.4 14.5 0.00 0.08 0.00 80 1019.1
20260506081427 13 286 4.8 12.9 0.00 0.08 0.00 80 1019.0
20260506080934 13 294 8.0 16.1 0.00 0.08 0.00 80 1019.0
20260506080440 13 277 8.0 16.1 0.00 0.08 0.00 80 1019.1
20260506073419 13 290 11.3 17.7 0.00 0.15 0.00 81 1018.8
20260506072944 13 261 6.4 17.7 0.00 0.15 0.00 81 1018.9
20260506072427 13 278 11.3 19.3 0.00 0.15 0.00 81 1018.7
20260506071933 13 280 9.7 19.3 0.00 0.15 0.00 82 1018.8
20260506071418 13 260 8.0 17.7 0.00 0.15 0.00 82 1018.6
20260506070946 13 239 9.7 19.3 0.00 0.15 0.00 82 1018.7
20260506070433 13 283 6.4 19.3 0.00 0.15 0.00 83 1018.7
20260506062430 13 306 9.7 14.5 0.00 0.18 0.15 83 1018.3
20260506061933 13 314 6.4 17.7 0.00 0.18 0.15 82 1018.3
20260506061420 13 283 9.7 17.7 0.00 0.18 0.15 82 1018.2
20260506060928 13 302 9.7 19.3 0.00 0.18 0.15 82 1018.2
20260506060436 13 282 6.4 19.3 0.00 0.18 0.15 82 1018.2
20260506050919 13 276 9.7 17.7 0.00 0.23 0.15 83 1018.0
20260506050429 13 261 8.0 16.1 0.00 0.23 0.15 83 1018.0
20260506044940 13 301 9.7 16.1 0.00 0.25 0.15 83 1017.8
20260506044448 13 296 9.7 19.3 0.00 0.25 0.15 83 1017.8
20260506043935 13 294 8.0 16.1 0.00 0.25 0.15 83 1017.9
20260506043422 13 264 9.7 16.1 0.00 0.25 0.15 83 1017.8
20260506042927 13 268 8.0 16.1 0.00 0.25 0.15 82 1017.7
20260506042435 13 299 8.0 20.9 0.00 0.25 0.15 82 1017.8
20260506041933 13 264 4.8 14.5 0.00 0.25 0.15 82 1017.5
20260506041420 13 222 8.0 14.5 0.00 0.25 0.15 82 1017.5
20260506040942 13 268 9.7 14.5 0.00 0.25 0.15 82 1017.4
20260506040428 13 295 6.4 12.9 0.00 0.25 0.15 81 1017.4
20260506035931 13 268 6.4 16.1 0.00 0.25 0.15 81 1017.2
20260506035434 13 230 9.7 16.1 0.00 0.25 0.15 81 1017.2
20260506034941 13 234 9.7 19.3 0.00 0.25 0.15 80 1017.1
20260506034423 13 270 8.0 20.9 0.00 0.25 0.15 80 1016.9
20260506033930 13 274 9.7 20.9 0.00 0.25 0.15 80 1016.9
20260506033437 13 212 9.7 19.3 0.00 0.25 0.15 80 1016.8
20260506032924 13 251 8.0 19.3 0.00 0.25 0.15 79 1016.8
20260506032430 13 251 9.7 19.3 0.00 0.25 0.15 79 1016.7
20260506031933 14 282 8.0 17.7 0.00 0.25 0.15 79 1016.7
20260506031437 14 240 8.0 17.7 0.00 0.25 0.15 79 1016.6
20260506030924 14 271 8.0 19.3 0.00 0.25 0.15 78 1016.5
20260506030429 14 359 9.7 19.3 0.00 0.25 0.15 79 1016.4
20260506025932 14 237 9.7 19.3 0.00 0.25 0.15 79 1016.3
20260506025418 14 222 9.7 19.3 0.00 0.25 0.15 79 1016.2
20260506024925 14 292 9.7 17.7 0.00 0.25 0.15 78 1016.2
20260506024429 14 239 9.7 17.7 0.00 0.25 0.15 78 1016.2
20260506023937 14 252 9.7 19.3 0.00 0.25 0.15 79 1016.2
20260506023422 14 258 12.9 25.7 0.00 0.25 0.15 78 1016.2
20260506022929 14 251 12.9 25.7 0.00 0.25 0.15 78 1016.2
20260506022437 14 274 14.5 22.5 0.00 0.25 0.15 78 1016.1
20260506021925 14 249 12.9 22.5 0.00 0.25 0.15 77 1016.0
20260506021432 14 257 12.9 32.2 0.00 0.25 0.15 77 1016.0
20260506020940 14 235 17.7 32.2 0.00 0.25 0.15 77 1015.9
20260506020421 15 260 12.9 29.0 0.00 0.25 0.15 77 1015.9
20260506015928 14 274 16.1 29.0 0.00 0.25 0.15 77 1015.9
20260506015434 15 251 16.1 27.4 0.00 0.25 0.15 76 1015.9
20260506014921 15 259 17.7 27.4 0.00 0.25 0.15 76 1015.9
20260506014429 15 281 14.5 27.4 0.00 0.25 0.15 75 1016.0
20260506013935 15 270 12.9 29.0 0.00 0.25 0.15 75 1016.0
20260506013419 15 251 14.5 25.7 0.00 0.25 0.15 74 1016.0
20260506012922 15 276 9.7 25.7 0.00 0.25 0.15 74 1016.1
20260506012431 15 275 11.3 24.1 0.00 0.25 0.15 74 1016.1
20260506011937 15 177 12.9 24.1 0.00 0.25 0.15 73 1016.1
20260506011423 15 277 14.5 22.5 0.00 0.25 0.15 73 1016.0
20260506010928 16 287 16.1 29.0 0.00 0.25 0.15 74 1016.0
20260506010436 15 263 14.5 29.0 0.00 0.25 0.15 73 1015.9
20260506005920 16 251 16.1 29.0 0.00 0.25 0.15 72 1016.0
20260506005428 16 27 14.5 29.0 0.00 0.25 0.15 71 1015.9
20260506004931 16 225 12.9 24.1 0.00 0.25 0.15 71 1015.9
20260506004434 16 285 9.7 24.1 0.00 0.25 0.15 73 1015.7
20260506003919 16 293 12.9 25.7 0.00 0.25 0.15 73 1015.7
20260506003426 16 213 16.1 32.2 0.00 0.25 0.15 72 1015.6
20260506002933 16 286 14.5 32.2 0.00 0.25 0.15 73 1015.6
20260506002438 16 277 17.7 32.2 0.00 0.25 0.15 72 1015.5
20260506001924 16 278 16.1 29.0 0.00 0.25 0.15 72 1015.5
20260506001425 16 261 16.1 29.0 0.00 0.25 0.15 72 1015.4
20260506000933 16 256 12.9 29.0 0.00 0.25 0.15 73 1015.4
20260506000420 16 277 14.5 29.0 0.00 0.25 0.15 74 1015.3
20260505235925 15 228 16.1 25.7 0.00 0.25 0.15 74 1015.3
20260505235432 15 270 14.5 27.4 0.00 0.25 0.15 75 1015.4
20260505234922 15 268 17.7 30.6 0.00 0.25 0.15 75 1015.4
20260505234427 15 268 17.7 29.0 0.00 0.25 0.15 74 1015.3
20260505233930 15 268 17.7 32.2 0.00 0.25 0.15 74 1015.4
20260505233437 15 277 16.1 32.2 0.00 0.25 0.15 74 1015.5
20260505232954 15 263 17.7 30.6 0.00 0.25 0.15 73 1015.5
20260505232421 16 257 19.3 32.2 0.00 0.25 0.15 74 1015.5
20260505231928 16 283 16.1 33.8 0.00 0.25 0.15 73 1015.4
20260505231435 16 314 14.5 32.2 0.00 0.25 0.15 73 1015.4
20260505230941 16 256 19.3 30.6 0.00 0.25 0.15 73 1015.3
20260505230443 16 242 17.7 33.8 0.00 0.25 0.15 73 1015.2
20260505225928 16 237 12.9 33.8 0.00 0.25 0.15 73 1015.3
20260505225433 16 268 19.3 35.4 0.00 0.25 0.15 71 1015.2
20260505224918 16 263 16.1 35.4 0.00 0.25 0.15 72 1015.4
20260505224423 16 252 20.9 35.4 0.00 0.25 0.15 72 1015.4
20260505223926 16 269 20.9 35.4 0.00 0.25 0.15 73 1015.4
20260505223433 16 282 20.9 33.8 0.00 0.25 0.15 73 1015.6
20260505222936 16 261 17.7 30.6 0.00 0.25 0.15 74 1015.4
20260505222441 16 287 14.5 32.2 0.00 0.25 0.15 74 1015.5
20260505221926 15 249 14.5 32.2 0.00 0.25 0.15 75 1015.6
20260505221433 15 250 17.7 29.0 0.00 0.25 0.15 75 1015.7
20260505220942 16 251 16.1 27.4 0.00 0.25 0.15 75 1015.8
20260505220447 16 247 19.3 27.4 0.00 0.25 0.15 74 1015.8
20260505215928 16 252 11.3 24.1 0.00 0.25 0.15 75 1015.9
20260505215432 15 259 16.1 24.1 0.00 0.25 0.15 76 1015.8
20260505214935 15 275 12.9 27.4 0.00 0.25 0.15 75 1015.9
20260505214423 16 263 14.5 30.6 0.00 0.25 0.15 75 1016.0
20260505213930 15 287 14.5 30.6 0.00 0.25 0.15 74 1016.1
20260505213436 15 295 12.9 25.7 0.00 0.25 0.15 74 1016.1
20260505212918 15 268 12.9 24.1 0.00 0.25 0.15 74 1016.1
20260505212421 15 252 16.1 27.4 0.00 0.25 0.15 74 1016.1
20260505211928 16 243 16.1 25.7 0.00 0.25 0.15 74 1016.1
20260505211435 16 263 16.1 27.4 0.00 0.25 0.15 73 1016.1
20260505210921 16 256 12.9 24.1 0.00 0.25 0.15 73 1016.1
20260505210428 16 282 16.1 22.5 0.00 0.25 0.15 73 1016.1
20260505205934 16 219 12.9 24.1 0.00 0.25 0.15 73 1016.1
20260505205441 16 272 11.3 30.6 0.00 0.25 0.15 73 1016.0
20260505204922 15 282 16.1 29.0 0.00 0.25 0.15 73 1016.1
20260505204426 15 347 12.9 30.6 0.00 0.25 0.15 74 1016.1
20260505203932 15 259 19.3 32.2 0.00 0.25 0.15 73 1016.1
20260505203446 16 288 14.5 24.1 0.00 0.25 0.15 72 1016.1
20260505203001 16 268 16.1 24.1 0.00 0.25 0.15 72 1016.1
20260505202458 16 284 14.5 30.6 0.00 0.25 0.15 73 1016.1
20260505201923 16 284 17.7 33.8 0.00 0.25 0.15 72 1016.1
20260505201421 16 275 19.3 27.4 0.00 0.25 0.15 72 1016.1
20260505200927 16 249 17.7 29.0 0.00 0.25 0.15 71 1016.1
20260505200431 16 203 12.9 32.2 0.00 0.25 0.15 73 1016.0
20260505195919 16 268 17.7 32.2 0.00 0.25 0.15 73 1015.9
20260505195423 15 277 17.7 35.4 0.00 0.25 0.15 73 1016.2
20260505194928 15 265 22.5 35.4 0.00 0.25 0.15 73 1016.2
20260505194435 16 308 14.5 30.6 0.00 0.25 0.15 74 1016.1
20260505193934 15 239 17.7 30.6 0.00 0.25 0.15 74 1016.2
20260505193422 15 294 19.3 29.0 0.00 0.25 0.15 74 1016.2
20260505192929 15 258 16.1 30.6 0.00 0.25 0.15 74 1016.2
20260505192436 15 259 14.5 30.6 0.00 0.25 0.15 74 1016.2
20260505191926 15 289 14.5 25.7 0.00 0.25 0.15 74 1016.2
20260505191431 15 221 19.3 25.7 0.00 0.25 0.15 75 1016.2
20260505190937 15 261 16.1 25.7 0.00 0.25 0.15 74 1016.1
20260505190440 15 265 14.5 22.5 0.00 0.25 0.15 76 1016.0
20260505185917 15 235 11.3 27.4 0.00 0.25 0.15 76 1015.9
20260505185423 15 295 12.9 27.4 0.00 0.25 0.15 77 1015.9
20260505184931 15 300 14.5 29.0 0.00 0.25 0.15 77 1015.9
20260505184436 15 315 14.5 29.0 0.00 0.25 0.15 77 1015.9
20260505183923 15 282 11.3 27.4 0.00 0.25 0.15 77 1015.9
20260505183430 15 261 12.9 27.4 0.00 0.25 0.15 78 1015.9
20260505182936 15 283 11.3 30.6 0.00 0.25 0.15 78 1016.0
20260505182419 15 281 19.3 30.6 0.00 0.25 0.15 77 1016.1
20260505181953 15 263 12.9 25.7 0.00 0.25 0.15 77 1016.2
20260505181435 15 289 12.9 22.5 0.00 0.25 0.15 79 1016.1
20260505180952 15 265 9.7 20.9 0.00 0.25 0.15 80 1016.2
20260505180419 14 280 9.7 24.1 0.00 0.25 0.15 80 1016.0
20260505175943 14 314 8.0 24.1 0.00 0.25 0.15 81 1015.8
20260505175423 14 270 16.1 27.4 0.00 0.25 0.15 81 1015.8
20260505174930 13 275 16.1 27.4 0.00 0.25 0.15 81 1015.7
20260505174416 13 241 11.3 25.7 0.00 0.25 0.15 82 1015.7
20260505173925 13 290 14.5 27.4 0.00 0.25 0.15 83 1015.6
20260505173431 13 261 14.5 27.4 0.00 0.25 0.15 82 1015.7
20260505172919 13 270 17.7 22.5 0.00 0.25 0.15 83 1015.6
20260505172424 13 285 16.1 24.1 0.00 0.25 0.15 83 1015.5
20260505171932 13 274 14.5 22.5 0.00 0.25 0.15 83 1015.6
20260505171434 13 283 9.7 24.1 0.00 0.25 0.15 84 1015.6
20260505170941 13 323 14.5 24.1 0.00 0.25 0.15 84 1015.6
20260505170426 13 283 14.5 24.1 0.00 0.25 0.15 84 1015.5
20260505165933 13 249 16.1 24.1 0.00 0.25 0.15 85 1015.6
20260505165419 13 295 9.7 20.9 0.00 0.25 0.15 85 1015.6
20260505164944 13 280 12.9 20.9 0.00 0.25 0.15 85 1015.6
20260505164422 13 313 14.5 20.9 0.00 0.25 0.15 85 1015.6
20260505163931 13 270 9.7 25.7 0.00 0.25 0.15 85 1015.5
20260505163434 13 293 16.1 25.7 0.00 0.25 0.15 85 1015.6
20260505162919 13 256 11.3 20.9 0.00 0.25 0.15 86 1015.7
20260505162448 13 299 12.9 20.9 0.00 0.25 0.15 86 1015.6
20260505161933 13 268 12.9 20.9 0.00 0.25 0.15 85 1015.6
20260505161420 13 273 11.3 16.1 0.00 0.25 0.15 86 1015.5
20260505160924 13 289 8.0 16.1 0.00 0.25 0.15 86 1015.4
20260505160428 13 202 8.0 17.7 0.00 0.25 0.15 86 1015.4